Date String (YYYY-MM-DD hh:mm:ss) UTC,Instrument flags,Ambient pressure (hPa),Sample flow (lpm),Bypass flow (lpm),Sample temperature (°C),Ambient temperature (°C),ASC tube jacket temperature (°C),LED temperature (°C),Box temperature (°C),Sample RH (%),Span deviation,Mass concentration (μg/m³),Mass concentration (μg/m³),Mass concentration (μg/m³)
DateTimeUTC,F1_M11,P_M11,Q1_M11,Q2_M11,T1_M11,T2_M11,T3_M11,T4_M11,T5_M11,U1_M11,ZSPAN_M11,X0_M11,X2_M11,X1_M11
2022-11-03 17:00:00,,0820.3,5.00,0.00,25.2,23.9,00.0,34.0,27.2,12.5,0000.0,0010.59,0003.61,0003.00
2022-11-03 17:01:00,,0820.4,5.01,0.00,25.2,23.9,00.0,34.0,27.2,12.4,0000.0,0009.95,0003.60,0003.02
2022-11-03 17:02:00,,0820.5,5.01,0.00,25.3,23.9,00.0,34.0,27.2,12.3,0000.0,0009.97,0003.63,0003.03
2022-11-03 17:03:00,,0820.6,5.00,0.00,25.2,23.9,00.0,34.0,27.2,12.3,0000.0,0010.33,0003.61,0003.03
2022-11-03 17:04:00,,0820.7,4.99,0.00,25.2,23.9,00.0,34.0,27.2,12.4,0000.0,0011.44,0003.63,0003.04
2022-11-03 17:05:00,,0820.6,5.01,0.00,25.3,23.9,00.0,34.0,27.2,12.5,0000.0,0010.98,0003.63,0003.03
2022-11-03 17:06:00,,0820.6,5.00,0.00,25.3,23.9,00.0,34.0,27.2,12.4,0000.0,0010.82,0003.63,0003.04
2022-11-03 17:07:00,,0820.6,5.00,0.00,25.3,23.9,00.0,34.0,27.2,12.4,0000.0,0010.91,0003.65,0003.07
2022-11-03 17:08:00,,0820.6,5.01,0.00,25.3,23.9,00.0,34.0,27.2,12.4,0000.0,0011.22,0003.69,0003.10
2022-11-03 17:09:00,,0820.6,5.00,0.00,25.3,23.9,00.0,34.0,27.2,12.4,0000.0,0011.01,0003.70,0003.12
2022-11-03 17:10:00,,0820.6,4.99,0.00,25.3,24.0,00.0,34.0,27.2,12.4,0000.0,0010.51,0003.71,0003.13
2022-11-03 17:11:00,,0820.6,4.99,0.00,25.3,24.0,00.0,34.0,27.2,12.5,0000.0,0010.17,0003.75,0003.13
2022-11-03 17:12:00,,0820.6,5.00,0.00,25.3,24.0,00.0,34.0,27.2,12.5,0000.0,0010.45,0003.79,0003.13
2022-11-03 17:13:00,,0820.6,5.00,0.00,25.3,24.0,00.0,34.0,27.2,12.4,0000.0,0010.46,0003.79,0003.14
2022-11-03 17:14:00,,0820.6,5.00,0.00,25.3,24.0,00.0,34.0,27.2,12.4,0000.0,0010.25,0003.82,0003.15
2022-11-03 17:15:00,,0820.6,5.00,0.00,25.3,24.0,00.0,34.0,27.2,12.4,0000.0,0009.70,0003.82,0003.16
2022-11-03 17:16:00,,0820.6,5.00,0.00,25.3,24.0,00.0,34.0,27.2,12.3,0000.0,0009.68,0003.82,0003.17
2022-11-03 17:17:00,,0820.5,4.99,0.00,25.3,24.0,00.0,34.1,27.2,12.3,0000.0,0009.82,0003.86,0003.17
2022-11-03 17:18:00,,0820.5,4.99,0.00,25.3,24.0,00.0,34.1,27.2,12.3,0000.0,0009.91,0003.87,0003.17
2022-11-03 17:19:00,,0820.5,5.00,0.00,25.3,23.9,00.0,34.1,27.2,12.3,0000.0,0009.81,0003.89,0003.16
2022-11-03 17:20:00,,0820.4,5.01,0.00,25.3,23.9,00.0,34.1,27.2,12.3,0000.0,0010.12,0003.89,0003.15
2022-11-03 17:21:00,,0820.5,5.01,0.00,25.3,24.0,00.0,34.1,27.2,12.3,0000.0,0010.27,0003.86,0003.15
2022-11-03 17:22:00,,0820.6,4.97,0.00,25.3,24.0,00.0,34.1,27.3,12.3,0000.0,0009.68,0003.83,0003.15
2022-11-03 17:23:00,,0820.6,5.00,0.00,25.3,24.0,00.0,34.1,27.3,12.3,0000.0,0009.34,0003.80,0003.14
2022-11-03 17:24:00,,0820.6,5.01,0.00,25.3,24.0,00.0,34.1,27.2,12.3,0000.0,0009.62,0003.82,0003.14
2022-11-03 17:25:00,,0820.7,5.01,0.00,25.3,24.0,00.0,34.1,27.3,12.2,0000.0,0009.68,0003.82,0003.14
2022-11-03 17:26:00,,0820.6,5.00,0.00,25.3,24.0,00.0,34.1,27.3,12.2,0000.0,0009.23,0003.76,0003.13
2022-11-03 17:27:00,,0820.6,5.00,0.00,25.3,24.0,00.0,34.1,27.3,12.2,0000.0,0009.38,0003.73,0003.13
2022-11-03 17:28:00,,0820.6,5.00,0.00,25.3,24.0,00.0,34.1,27.3,12.3,0000.0,0009.28,0003.72,0003.14
2022-11-03 17:29:00,,0820.6,5.00,0.00,25.3,24.0,00.0,34.1,27.3,12.2,0000.0,0009.49,0003.72,0003.13
2022-11-03 17:30:00,,0820.6,5.00,0.00,25.3,24.0,00.0,34.1,27.3,12.2,0000.0,0009.58,0003.72,0003.14
2022-11-03 17:31:00,,0820.6,4.99,0.00,25.3,24.0,00.0,34.1,27.3,12.2,0000.0,0010.42,0003.74,0003.14
2022-11-03 17:32:00,,0820.6,5.00,0.00,25.3,24.0,00.0,34.1,27.3,12.2,0000.0,0010.54,0003.76,0003.15
2022-11-03 17:33:00,,0820.6,5.00,0.00,25.3,23.9,00.0,34.1,27.3,12.2,0000.0,0010.91,0003.82,0003.16
2022-11-03 17:34:00,,0820.5,5.00,0.00,25.3,23.9,00.0,34.1,27.3,12.2,0000.0,0011.02,0003.85,0003.17
2022-11-03 17:35:00,,0820.3,5.01,0.00,25.3,23.9,00.0,34.1,27.3,12.2,0000.0,0010.97,0003.86,0003.17
2022-11-03 17:36:00,,0820.2,4.98,0.00,25.3,23.9,00.0,34.1,27.3,12.2,0000.0,0011.22,0003.87,0003.17
2022-11-03 17:37:00,,0820.3,5.00,0.00,25.3,23.9,00.0,34.1,27.3,12.2,0000.0,0011.78,0003.95,0003.18
2022-11-03 17:38:00,,0820.5,5.00,0.00,25.3,23.8,00.0,34.1,27.2,12.2,0000.0,0012.23,0004.02,0003.19
2022-11-03 17:39:00,,0820.6,5.01,0.00,25.3,23.8,00.0,34.1,27.2,12.2,0000.0,0012.92,0004.02,0003.19
2022-11-03 17:40:00,,0820.6,5.01,0.00,25.3,23.8,00.0,34.1,27.2,12.2,0000.0,0012.72,0004.00,0003.20
2022-11-03 17:41:00,,0820.6,4.99,0.00,25.3,23.8,00.0,34.1,27.2,12.2,0000.0,0012.46,0003.96,0003.20
2022-11-03 17:42:00,,0820.6,4.99,0.00,25.3,23.8,00.0,34.1,27.2,12.2,0000.0,0011.91,0003.94,0003.19
2022-11-03 17:43:00,,0820.6,5.00,0.00,25.3,23.9,00.0,34.1,27.2,12.2,0000.0,0011.60,0003.96,0003.20
2022-11-03 17:44:00,,0820.6,5.01,0.00,25.3,23.9,00.0,34.1,27.2,12.2,0000.0,0011.71,0003.96,0003.20
2022-11-03 17:45:00,,0820.6,5.00,0.00,25.3,23.9,00.0,34.1,27.2,12.2,0000.0,0012.20,0003.96,0003.20
2022-11-03 17:46:00,,0820.7,5.00,0.00,25.3,23.9,00.0,34.1,27.2,12.2,0000.0,0012.38,0003.94,0003.20
2022-11-03 17:47:00,,0820.7,5.00,0.00,25.3,23.9,00.0,34.1,27.2,12.2,0000.0,0011.97,0003.95,0003.21
2022-11-03 17:48:00,,0820.6,5.00,0.00,25.3,23.9,00.0,34.1,27.2,12.2,0000.0,0011.22,0003.92,0003.22
2022-11-03 17:49:00,,0820.6,5.00,0.00,25.3,23.8,00.0,34.1,27.2,12.2,0000.0,0010.70,0003.91,0003.23
2022-11-03 17:50:00,,0820.6,5.00,0.00,25.3,23.8,00.0,34.1,27.2,12.2,0000.0,0010.47,0003.96,0003.24
2022-11-03 17:51:00,,0820.6,5.00,0.00,25.3,23.8,00.0,34.1,27.2,12.2,0000.0,0010.89,0004.00,0003.25
2022-11-03 17:52:00,,0820.6,5.00,0.00,25.3,23.8,00.0,34.1,27.2,12.2,0000.0,0011.53,0004.01,0003.26
2022-11-03 17:53:00,,0820.6,5.00,0.00,25.3,23.8,00.0,34.1,27.2,12.2,0000.0,0011.46,0004.01,0003.27
2022-11-03 17:54:00,,0820.6,5.00,0.00,25.3,23.8,00.0,34.1,27.2,12.2,0000.0,0011.53,0004.00,0003.27
2022-11-03 17:55:00,,0820.6,5.00,0.00,25.3,23.8,00.0,34.1,27.2,12.2,0000.0,0011.24,0003.98,0003.26
2022-11-03 17:56:00,,0820.6,5.00,0.00,25.3,23.8,00.0,34.1,27.2,12.2,0000.0,0011.26,0003.98,0003.25
2022-11-03 17:57:00,,0820.5,5.00,0.00,25.3,23.8,00.0,34.1,27.1,12.2,0000.0,0011.08,0003.99,0003.25
2022-11-03 17:58:00,,0820.5,5.00,0.00,25.3,23.8,00.0,34.1,27.2,12.2,0000.0,0011.37,0003.98,0003.24
2022-11-03 17:59:00,,0820.5,5.00,0.00,25.3,23.8,00.0,34.1,27.2,12.2,0000.0,0011.49,0003.99,0003.24
